When you browse on this site, cookies collect data to enhance your experience and personalize the content and advertising you see.
Visit our Privacy Policy to learn more. By continuing to use the site, you agree to this use of cookies and data.
  • In Switzerland
  • List of Countries
  • For 7 days
  • Water Temperature
  • Satellite Maps
  • Weather Map
  • Weather Widgets
  • user-avatar
    Login

    Hourly Weather Staryy Akbulyak

    Today, 16 February, Saturday

    Time Temperature Precipitation Wind Pressure Humidity
    00:00 -11°C° 0.2 mm 5 mps 738 mmHg 91%
    01:00 -10°C° 0.2 mm 5 mps 737 mmHg 91%
    02:00 -10°C° 0.3 mm 5 mps 736 mmHg 92%
    03:00 -10°C° 0.3 mm 5 mps 736 mmHg 92%
    04:00 -10°C° 0 mm 4 mps 735 mmHg 91%
    05:00 -10°C° 0.1 mm 4 mps 734 mmHg 92%
    06:00 -10°C° 0.1 mm 4 mps 734 mmHg 92%
    07:00 -10°C° 0.1 mm 4 mps 734 mmHg 92%
    08:00 -11°C° 0.2 mm 5 mps 733 mmHg 93%
    09:00 -10°C° 0.2 mm 5 mps 733 mmHg 93%
    10:00 -10°C° 0 mm 5 mps 733 mmHg 93%
    11:00 -8°C° 0.3 mm 5 mps 733 mmHg 93%
    12:00 -8°C° 0.3 mm 5 mps 733 mmHg 93%
    13:00 -7°C° 0.3 mm 5 mps 733 mmHg 93%
    14:00 -5°C° 0.3 mm 4 mps 733 mmHg 93%
    15:00 -4°C° 0.3 mm 4 mps 733 mmHg 93%
    16:00 -3°C° 0.3 mm 4 mps 733 mmHg 93%
    17:00 -4°C° 0.1 mm 3 mps 733 mmHg 93%
    18:00 -5°C° 0.1 mm 3 mps 734 mmHg 94%
    19:00 -5°C° 0.1 mm 2 mps 734 mmHg 94%
    20:00 -6°C° 0 mm 2 mps 734 mmHg 95%
    21:00 -4°C° 0 mm 1 mps 734 mmHg 96%
    22:00 -4°C° 0 mm 1 mps 734 mmHg 97%
    23:00 -4°C° 0.1 mm 1 mps 734 mmHg 97%

    Tomorrow, 17 February, Sunday

    Time Temperature Precipitation Wind Pressure Humidity
    00:00 -4°C° 0.1 mm 1 mps 735 mmHg 97%
    01:00 -3°C° 0.1 mm 1 mps 735 mmHg 98%
    02:00 -4°C° 0.1 mm 1 mps 735 mmHg 98%
    03:00 -4°C° 0.1 mm 1 mps 735 mmHg 97%
    04:00 -4°C° 0.1 mm 1 mps 735 mmHg 97%
    05:00 -6°C° 0.1 mm 1 mps 735 mmHg 97%
    06:00 -7°C° 0.1 mm 1 mps 735 mmHg 97%
    07:00 -8°C° 0.1 mm 1 mps 734 mmHg 96%
    08:00 -7°C° 0 mm 1 mps 734 mmHg 95%
    09:00 -7°C° 0 mm 1 mps 734 mmHg 94%
    10:00 -6°C° 0 mm 1 mps 734 mmHg 93%
    11:00 -4°C° 0 mm 1 mps 733 mmHg 91%
    12:00 -5°C° 0 mm 2 mps 733 mmHg 90%
    13:00 -5°C° 0 mm 3 mps 733 mmHg 89%
    14:00 -5°C° 0 mm 3 mps 732 mmHg 89%
    15:00 -4°C° 0 mm 3 mps 731 mmHg 90%
    16:00 -4°C° 0 mm 3 mps 731 mmHg 90%
    17:00 -4°C° 0.2 mm 3 mps 730 mmHg 91%
    18:00 -4°C° 0.2 mm 4 mps 730 mmHg 91%
    19:00 -4°C° 0.2 mm 4 mps 729 mmHg 91%
    20:00 -5°C° 0.1 mm 5 mps 729 mmHg 91%
    21:00 -5°C° 0.1 mm 5 mps 728 mmHg 91%
    22:00 -6°C° 0.1 mm 5 mps 728 mmHg 91%
    23:00 -6°C° 0.1 mm 5 mps 727 mmHg 91%

    Day after tomorrow, 18 February, Monday

    Time Temperature Precipitation Wind Pressure Humidity
    00:00 -6°C° 0.1 mm 5 mps 726 mmHg 91%
    01:00 -6°C° 0.1 mm 5 mps 726 mmHg 90%
    02:00 -6°C° 0.1 mm 5 mps 725 mmHg 90%
    03:00 -6°C° 0.1 mm 5 mps 725 mmHg 90%
    04:00 -7°C° 0.1 mm 5 mps 724 mmHg 90%
    05:00 -7°C° 0.3 mm 4 mps 724 mmHg 91%
    06:00 -7°C° 0.3 mm 4 mps 724 mmHg 92%
    07:00 -7°C° 0.3 mm 4 mps 723 mmHg 92%
    08:00 -7°C° 0.2 mm 4 mps 723 mmHg 92%
    09:00 -5°C° 0.2 mm 4 mps 723 mmHg 91%
    10:00 -5°C° 0.2 mm 4 mps 723 mmHg 90%
    11:00 -5°C° 0.1 mm 3 mps 724 mmHg 89%
    12:00 -4°C° 0.1 mm 3 mps 724 mmHg 88%
    13:00 -3°C° 0.1 mm 2 mps 724 mmHg 87%
    14:00 -2°C° 0.2 mm 2 mps 724 mmHg 88%
    15:00 0°C° 0.2 mm 1 mps 725 mmHg 89%
    16:00 0°C° 0.2 mm 1 mps 725 mmHg 90%
    17:00 -1°C° 0.1 mm 1 mps 726 mmHg 91%
    18:00 -4°C° 0.1 mm 2 mps 726 mmHg 93%
    19:00 -5°C° 0.1 mm 2 mps 727 mmHg 94%
    20:00 -5°C° 0 mm 2 mps 728 mmHg 94%
    21:00 -6°C° 0 mm 2 mps 728 mmHg 94%
    22:00 -6°C° 0 mm 2 mps 729 mmHg 94%
    23:00 -7°C° 0 mm 2 mps 730 mmHg 94%

    19 February, Tuesday

    Time Temperature Precipitation Wind Pressure Humidity
    00:00 -8°C° 0 mm 3 mps 730 mmHg 94%
    01:00 -8°C° 0 mm 3 mps 731 mmHg 95%
    02:00 -10°C° 0.1 mm 4 mps 732 mmHg 93%
    03:00 -11°C° 0.1 mm 5 mps 733 mmHg 90%
    04:00 -12°C° 0.1 mm 7 mps 734 mmHg 88%
    05:00 -14°C° 0 mm 6 mps 735 mmHg 88%
    06:00 -15°C° 0 mm 5 mps 736 mmHg 88%
    07:00 -17°C° 0 mm 5 mps 737 mmHg 87%
    08:00 -17°C° 0 mm 5 mps 738 mmHg 86%
    09:00 -17°C° 0 mm 5 mps 739 mmHg 84%
    10:00 -17°C° 0 mm 5 mps 740 mmHg 83%
    11:00 -15°C° 0 mm 5 mps 740 mmHg 82%
    12:00 -15°C° 0 mm 4 mps 741 mmHg 81%
    13:00 -14°C° 0 mm 4 mps 741 mmHg 81%
    14:00 -14°C° 0 mm 4 mps 742 mmHg 82%
    15:00 -13°C° 0 mm 3 mps 742 mmHg 83%
    16:00 -12°C° 0 mm 2 mps 742 mmHg 83%
    17:00 -13°C° 0 mm 2 mps 743 mmHg 86%
    18:00 -15°C° 0 mm 2 mps 743 mmHg 88%
    19:00 -14°C° 0 mm 1 mps 743 mmHg 90%
    20:00 -15°C° 0 mm 2 mps 744 mmHg 91%
    21:00 -14°C° 0 mm 2 mps 744 mmHg 91%
    22:00 -14°C° 0 mm 2 mps 744 mmHg 91%
    23:00 -15°C° 0.1 mm 3 mps 744 mmHg 91%

    20 February, Wednesday

    Time Temperature Precipitation Wind Pressure Humidity
    00:00 -14°C° 0.1 mm 3 mps 743 mmHg 91%
    01:00 -15°C° 0.1 mm 4 mps 743 mmHg 91%
    02:00 -15°C° 0.1 mm 4 mps 743 mmHg 92%
    03:00 -15°C° 0.1 mm 4 mps 743 mmHg 93%
    04:00 -15°C° 0.1 mm 4 mps 743 mmHg 94%
    05:00 -15°C° 0 mm 4 mps 743 mmHg 94%
    06:00 -15°C° 0 mm 4 mps 743 mmHg 94%
    07:00 -14°C° 0 mm 4 mps 743 mmHg 94%
    08:00 -14°C° 0 mm 4 mps 744 mmHg 94%
    09:00 -12°C° 0 mm 4 mps 744 mmHg 94%
    10:00 -13°C° 0 mm 5 mps 744 mmHg 94%
    11:00 -12°C° 0 mm 5 mps 744 mmHg 93%
    12:00 -11°C° 0 mm 5 mps 743 mmHg 92%
    13:00 -10°C° 0 mm 6 mps 743 mmHg 91%
    14:00 -10°C° 0 mm 6 mps 743 mmHg 91%
    15:00 -10°C° 0 mm 6 mps 742 mmHg 91%
    16:00 -10°C° 0 mm 6 mps 742 mmHg 91%
    17:00 -10°C° 0.1 mm 6 mps 742 mmHg 91%
    18:00 -11°C° 0.1 mm 7 mps 742 mmHg 91%
    19:00 -11°C° 0.1 mm 7 mps 741 mmHg 91%
    20:00 -12°C° 0 mm 7 mps 741 mmHg 91%
    21:00 -12°C° 0 mm 7 mps 741 mmHg 90%
    22:00 -12°C° 0 mm 7 mps 741 mmHg 90%
    23:00 -12°C° 0 mm 7 mps 741 mmHg 90%

    21 February, Thursday

    Time Temperature Precipitation Wind Pressure Humidity
    00:00 -12°C° 0 mm 7 mps 740 mmHg 90%
    01:00 -12°C° 0 mm 7 mps 740 mmHg 90%
    02:00 -12°C° 0 mm 7 mps 740 mmHg 90%
    03:00 -13°C° 0 mm 7 mps 740 mmHg 90%
    04:00 -13°C° 0 mm 7 mps 740 mmHg 90%
    05:00 -13°C° 0.1 mm 7 mps 740 mmHg 90%
    06:00 -13°C° 0.1 mm 7 mps 740 mmHg 90%
    07:00 -12°C° 0.1 mm 6 mps 740 mmHg 91%
    08:00 -12°C° 0.2 mm 6 mps 740 mmHg 91%
    09:00 -12°C° 0.2 mm 6 mps 740 mmHg 91%
    10:00 -12°C° 0.2 mm 6 mps 740 mmHg 92%
    11:00 -13°C° 0.2 mm 7 mps 740 mmHg 91%
    12:00 -12°C° 0.2 mm 7 mps 740 mmHg 91%
    13:00 -12°C° 0.2 mm 7 mps 739 mmHg 90%
    14:00 -11°C° 0.2 mm 7 mps 739 mmHg 90%
    15:00 -11°C° 0.2 mm 7 mps 739 mmHg 89%
    16:00 -11°C° 0.2 mm 7 mps 739 mmHg 89%
    17:00 -11°C° 0.2 mm 7 mps 739 mmHg 89%
    18:00 -11°C° 0.2 mm 7 mps 739 mmHg 89%
    19:00 -11°C° 0.2 mm 7 mps 739 mmHg 90%
    20:00 -11°C° 0.2 mm 7 mps 739 mmHg 90%
    21:00 -9°C° 0.2 mm 6 mps 739 mmHg 90%
    22:00 -9°C° 0.2 mm 6 mps 739 mmHg 90%
    23:00 -9°C° 0.2 mm 6 mps 739 mmHg 90%
    Show more